Bookmark and Share
Track history (hours):
 

Captain Koulis

Last reported at 2014-Apr-18 08:33 UTC. Time now 2014-Apr-18 10:47 UTC.
Position N 36°25' E 025°26'.

Length 21 m.

Type: Passenger vessel. MMSI: 239173800.

NotesDate/timePositionNaut miles runAvg speedWind from/ knotsBaromVisibWave heightAir tempDewpointWater temp
2014-Apr-18 08:33N 36°25' E 025°26'0 0.0
2014-Apr-18 07:33N 36°25' E 025°26'0 0.4
2014-Apr-18 06:33N 36°25' E 025°25'0 0.1
2014-Apr-18 05:33N 36°25' E 025°25'1 0.9
2014-Apr-18 04:32N 36°24' E 025°26'1 0.1
2014-Apr-17 17:33N 36°25' E 025°24'2 1.9
2014-Apr-17 16:32N 36°23' E 025°26'0 0.0
2014-Apr-17 15:33N 36°23' E 025°26'2 1.3
2014-Apr-17 14:20N 36°25' E 025°25'0 0.3
2014-Apr-17 13:32N 36°25' E 025°25'1 0.7
2014-Apr-17 12:33N 36°25' E 025°26'1 0.4
2014-Apr-17 11:05N 36°25' E 025°26'4 5.9
2014-Apr-17 10:26N 36°28' E 025°23'5 5.5
2014-Apr-17 09:33N 36°23' E 025°26'2 1.8
2014-Apr-17 08:32N 36°25' E 025°26'1 1.4
2014-Apr-17 07:33N 36°25' E 025°24'0 0.0
2014-Apr-17 06:32N 36°25' E 025°24'1 0.1
2014-Apr-16 12:22N 36°25' E 025°25'0 0.1
2014-Apr-16 11:30N 36°25' E 025°26'0 0.0
2014-Apr-16 10:17N 36°25' E 025°26'0 0.1
2014-Apr-16 09:16N 36°25' E 025°26'0 0.7
2014-Apr-16 08:33N 36°25' E 025°25'0 0.1
2014-Apr-16 07:30N 36°25' E 025°25'0 0.0
2014-Apr-16 05:30N 36°25' E 025°25'1 1.3
2014-Apr-16 04:33N 36°24' E 025°25'1 1.5
2014-Apr-16 03:33N 36°25' E 025°24'0 0.0
2014-Apr-14 11:33N 36°25' E 025°24'0 0.0
2014-Apr-14 10:33N 36°25' E 025°24'2 1.0
2014-Apr-14 08:32N 36°23' E 025°26'3 1.6
2014-Apr-14 06:33N 36°26' E 025°24'1 1.5
2014-Apr-14 05:33N 36°25' E 025°26'  
2014-Apr-11 12:21N 36°24' E 025°24'2 2.6
2014-Apr-11 11:34N 36°26' E 025°24'1816.1
2014-Apr-11 10:28N 36°41' E 025°12'5 4.9
2014-Apr-11 09:33N 36°43' E 025°16'1615.7
2014-Apr-11 08:33N 36°37' E 024°58'1616.2
2014-Apr-11 07:34N 36°30' E 025°16'1413.4
2014-Apr-11 06:33N 36°19' E 025°27'1414.1
2014-Apr-11 05:33N 36°21' E 025°45'1918.7
2014-Apr-11 04:33N 36°29' E 025°24'5 0.4
2014-Apr-10 17:33N 36°25' E 025°24'2 1.8
2014-Apr-10 16:33N 36°23' E 025°26'2 0.2
2014-Apr-10 09:17N 36°25' E 025°26'1 1.7
2014-Apr-10 08:33N 36°25' E 025°24'0 0.0
2014-Apr-10 07:33N 36°25' E 025°24'0 0.1
2014-Apr-10 06:33N 36°25' E 025°24'0 0.0
2014-Apr-09 11:33N 36°25' E 025°24'0 0.0
2014-Apr-09 10:33N 36°25' E 025°24'3 3.3
2014-Apr-09 09:34N 36°22' E 025°21'4 3.9
2014-Apr-09 08:30N 36°20' E 025°26'0 0.0
2014-Apr-09 07:32N 36°20' E 025°26'0 0.0
2014-Apr-09 06:33N 36°20' E 025°26'0 0.0
2014-Apr-08 13:23N 36°20' E 025°26'0 0.0
2014-Apr-08 12:33N 36°20' E 025°26'0 0.0
2014-Apr-08 11:04N 36°20' E 025°26'0 0.0
2014-Apr-08 10:30N 36°20' E 025°26'0 0.0
2014-Apr-08 09:32N 36°20' E 025°26'  

Dump ship's entire track history

sailing weather and tide predictions

Captain Koulis — SV5456 — position and weather